contact:dominique.lefevre@mio.osupytheas.fr, maurice.libes@osupytheas.fr, didier.mallarino@osupytheas.fr
Project:EMSO http://www.emso-fr.org/EMSO-France
Depth: 2436.0 m
Title:EMSO Ligure Ouest : Data MII capteur CSTAR
DateTime,Latitude,Longitude,Instrument_Serial,Reference_Counts,Signal_Counts,Corrected_Signal_raw_counts,Calculated_Beam_c_inverse_meters,Internal_thermistor_counts
DateTime,Latitude,Longitude,Instrument_Serial,Reference_Counts,Signal_Counts,Corrected_Signal_raw_counts,Calculated_Beam_c_inverse_meters,Internal_thermistor_counts
2024-04-16T00:01:37,42.805,6.029,CST-1368DR,4093,4261,11031,01.390,553
2024-04-16T00:04:39,42.805,6.029,CST-1368DR,4093,4260,11028,01.391,553
2024-04-16T00:07:40,42.805,6.029,CST-1368DR,4093,4261,11031,01.390,553
2024-04-16T00:10:42,42.805,6.029,CST-1368DR,4093,4259,11026,01.392,553
2024-04-16T00:13:44,42.805,6.029,CST-1368DR,4093,4264,11038,01.388,553
2024-04-16T00:16:45,42.805,6.029,CST-1368DR,4093,4260,11029,01.391,553
2024-04-16T00:19:47,42.805,6.029,CST-1368DR,4093,4262,11032,01.390,553
2024-04-16T00:22:48,42.805,6.029,CST-1368DR,4093,4247,10995,01.403,553
2024-04-16T00:25:50,42.805,6.029,CST-1368DR,4093,4261,11031,01.390,553
2024-04-16T00:28:51,42.805,6.029,CST-1368DR,4093,4261,11031,01.390,553
2024-04-16T00:31:53,42.805,6.029,CST-1368DR,4093,4261,11031,01.390,553
2024-04-16T00:34:55,42.805,6.029,CST-1368DR,4093,4259,11025,01.393,553
2024-04-16T00:37:56,42.805,6.029,CST-1368DR,4093,4261,11031,01.390,553
2024-04-16T00:40:58,42.805,6.029,CST-1368DR,4093,4263,11037,01.388,553
2024-04-16T00:43:59,42.805,6.029,CST-1368DR,4093,4261,11030,01.391,553
2024-04-16T00:47:01,42.805,6.029,CST-1368DR,4093,4262,11034,01.389,553
2024-04-16T00:50:02,42.805,6.029,CST-1368DR,4093,4262,11033,01.390,553
2024-04-16T00:53:04,42.805,6.029,CST-1368DR,4093,4261,11029,01.391,553
2024-04-16T00:56:06,42.805,6.029,CST-1368DR,4093,4258,11024,01.393,553
2024-04-16T00:59:07,42.805,6.029,CST-1368DR,4093,4261,11031,01.390,553
2024-04-16T01:02:09,42.805,6.029,CST-1368DR,4093,4264,11037,01.388,553
2024-04-16T01:05:10,42.805,6.029,CST-1368DR,4093,4260,11028,01.391,553
2024-04-16T01:08:12,42.805,6.029,CST-1368DR,4093,4261,11030,01.391,553
2024-04-16T01:11:14,42.805,6.029,CST-1368DR,4093,4261,11031,01.390,553
2024-04-16T01:14:15,42.805,6.029,CST-1368DR,4093,4260,11027,01.392,553
2024-04-16T01:17:17,42.805,6.029,CST-1368DR,4093,4258,11022,01.394,553
2024-04-16T01:20:18,42.805,6.029,CST-1368DR,4093,4261,11030,01.391,553
2024-04-16T01:23:20,42.805,6.029,CST-1368DR,4093,4261,11031,01.390,553
2024-04-16T01:26:21,42.805,6.029,CST-1368DR,4093,4264,11038,01.388,553
2024-04-16T01:29:23,42.805,6.029,CST-1368DR,4093,4260,11028,01.391,553
2024-04-16T01:32:25,42.805,6.029,CST-1368DR,4093,4260,11029,01.391,553
2024-04-16T01:35:26,42.805,6.029,CST-1368DR,4093,4261,11029,01.391,553
2024-04-16T01:38:28,42.805,6.029,CST-1368DR,4093,4260,11027,01.392,553
2024-04-16T01:41:29,42.805,6.029,CST-1368DR,4093,4260,11029,01.391,553
2024-04-16T01:44:31,42.805,6.029,CST-1368DR,4093,4260,11027,01.392,553
2024-04-16T01:47:32,42.805,6.029,CST-1368DR,4093,4260,11027,01.392,553
2024-04-16T01:50:34,42.805,6.029,CST-1368DR,4093,4257,11020,01.394,553
2024-04-16T01:53:36,42.805,6.029,CST-1368DR,4093,4259,11026,01.392,553
2024-04-16T01:56:37,42.805,6.029,CST-1368DR,4093,4261,11030,01.391,553
2024-04-16T01:59:39,42.805,6.029,CST-1368DR,4093,4260,11027,01.392,553
2024-04-16T02:02:40,42.805,6.029,CST-1368DR,4093,4259,11026,01.392,553
2024-04-16T02:05:42,42.805,6.029,CST-1368DR,4093,4259,11026,01.392,553
2024-04-16T02:08:44,42.805,6.029,CST-1368DR,4093,4260,11027,01.392,553
2024-04-16T02:11:45,42.805,6.029,CST-1368DR,4093,4258,11022,01.394,553
2024-04-16T02:14:47,42.805,6.029,CST-1368DR,4093,4260,11027,01.392,553
2024-04-16T02:17:48,42.805,6.029,CST-1368DR,4093,4260,11027,01.392,553
2024-04-16T02:20:50,42.805,6.029,CST-1368DR,4093,4260,11028,01.391,553
2024-04-16T02:23:51,42.805,6.029,CST-1368DR,4093,4259,11026,01.392,553
2024-04-16T02:26:53,42.805,6.029,CST-1368DR,4093,4259,11026,01.392,553
2024-04-16T02:29:55,42.805,6.029,CST-1368DR,4093,4261,11031,01.390,553
2024-04-16T02:32:56,42.805,6.029,CST-1368DR,4093,4271,11056,01.381,553
2024-04-16T02:35:58,42.805,6.029,CST-1368DR,4093,4259,11026,01.392,553
2024-04-16T02:38:59,42.805,6.029,CST-1368DR,4093,4263,11035,01.389,553
2024-04-16T02:42:01,42.805,6.029,CST-1368DR,4093,4262,11032,01.390,553
2024-04-16T02:45:02,42.805,6.029,CST-1368DR,4093,4260,11027,01.392,553
2024-04-16T02:48:04,42.805,6.029,CST-1368DR,4093,4260,11028,01.391,553
2024-04-16T02:51:06,42.805,6.029,CST-1368DR,4093,4260,11029,01.391,553
2024-04-16T02:54:07,42.805,6.029,CST-1368DR,4093,4260,11028,01.391,553
2024-04-16T02:57:09,42.805,6.029,CST-1368DR,4093,4259,11026,01.392,553
2024-04-16T03:00:10,42.805,6.029,CST-1368DR,4093,4260,11029,01.391,553
2024-04-16T03:03:12,42.805,6.029,CST-1368DR,4093,4260,11029,01.391,553
2024-04-16T03:06:14,42.805,6.029,CST-1368DR,4093,4260,11027,01.392,553
2024-04-16T03:09:15,42.805,6.029,CST-1368DR,4092,4259,11028,01.391,553
2024-04-16T03:12:17,42.805,6.029,CST-1368DR,4093,4261,11029,01.391,553
2024-04-16T03:15:18,42.805,6.029,CST-1368DR,4093,4261,11030,01.391,553
2024-04-16T03:18:20,42.805,6.029,CST-1368DR,4093,4262,11032,01.390,553
2024-04-16T03:21:21,42.805,6.029,CST-1368DR,4093,4261,11030,01.391,553
2024-04-16T03:24:23,42.805,6.029,CST-1368DR,4093,4260,11029,01.391,553
2024-04-16T03:27:25,42.805,6.029,CST-1368DR,4093,4262,11033,01.390,553
2024-04-16T03:30:26,42.805,6.029,CST-1368DR,4093,4260,11029,01.391,553
2024-04-16T03:33:28,42.805,6.029,CST-1368DR,4093,4261,11031,01.390,553
2024-04-16T03:36:29,42.805,6.029,CST-1368DR,4092,4260,11031,01.390,553
2024-04-16T03:39:31,42.805,6.029,CST-1368DR,4093,4260,11029,01.391,553
2024-04-16T03:42:32,42.805,6.029,CST-1368DR,4093,4260,11029,01.391,553
2024-04-16T03:45:34,42.805,6.029,CST-1368DR,4093,4260,11029,01.391,553
2024-04-16T03:48:36,42.805,6.029,CST-1368DR,4092,4261,11032,01.390,553
2024-04-16T03:51:37,42.805,6.029,CST-1368DR,4093,4259,11026,01.392,553
2024-04-16T03:54:39,42.805,6.029,CST-1368DR,4093,4261,11029,01.391,553
2024-04-16T03:57:40,42.805,6.029,CST-1368DR,4092,4259,11029,01.391,553
2024-04-16T04:00:42,42.805,6.029,CST-1368DR,4092,4260,11029,01.391,553
2024-04-16T04:03:44,42.805,6.029,CST-1368DR,4092,4259,11028,01.391,553
2024-04-16T04:06:45,42.805,6.029,CST-1368DR,4092,4259,11029,01.391,553
2024-04-16T04:09:47,42.805,6.029,CST-1368DR,4093,4259,11026,01.392,553
2024-04-16T04:12:48,42.805,6.029,CST-1368DR,4093,4259,11026,01.392,553
2024-04-16T04:15:50,42.805,6.029,CST-1368DR,4093,4259,11026,01.392,553
2024-04-16T04:18:51,42.805,6.029,CST-1368DR,4092,4257,11022,01.394,553
2024-04-16T04:21:53,42.805,6.029,CST-1368DR,4093,4260,11027,01.392,553
2024-04-16T04:24:55,42.805,6.029,CST-1368DR,4092,4260,11029,01.391,553
2024-04-16T04:27:56,42.805,6.029,CST-1368DR,4092,4260,11031,01.390,553
2024-04-16T04:30:58,42.805,6.029,CST-1368DR,4092,4259,11028,01.391,553
2024-04-16T04:33:59,42.805,6.029,CST-1368DR,4092,4260,11030,01.391,553
2024-04-16T04:37:01,42.805,6.029,CST-1368DR,4092,4258,11026,01.392,553
2024-04-16T04:40:02,42.805,6.029,CST-1368DR,4092,4259,11029,01.391,553
2024-04-16T04:43:04,42.805,6.029,CST-1368DR,4093,4259,11025,01.393,553
2024-04-16T04:46:06,42.805,6.029,CST-1368DR,4093,4259,11025,01.393,553
2024-04-16T04:49:07,42.805,6.029,CST-1368DR,4092,4257,11022,01.394,553
2024-04-16T04:52:09,42.805,6.029,CST-1368DR,4093,4259,11025,01.393,553
2024-04-16T04:55:10,42.805,6.029,CST-1368DR,4093,4258,11022,01.394,553
2024-04-16T04:58:12,42.805,6.029,CST-1368DR,4092,4257,11023,01.393,553
2024-04-16T05:01:14,42.805,6.029,CST-1368DR,4092,4260,11030,01.391,553
2024-04-16T05:04:15,42.805,6.029,CST-1368DR,4093,4258,11022,01.394,553
2024-04-16T05:07:17,42.805,6.029,CST-1368DR,4092,4258,11024,01.393,553
2024-04-16T05:10:18,42.805,6.029,CST-1368DR,4093,4258,11022,01.394,553
2024-04-16T05:13:20,42.805,6.029,CST-1368DR,4093,4257,11020,01.394,553
2024-04-16T05:16:21,42.805,6.029,CST-1368DR,4093,4256,11018,01.395,553
2024-04-16T05:19:23,42.805,6.029,CST-1368DR,4093,4258,11022,01.394,553
2024-04-16T05:22:25,42.805,6.029,CST-1368DR,4093,4259,11026,01.392,553
2024-04-16T05:25:26,42.805,6.029,CST-1368DR,4093,4257,11020,01.394,553
2024-04-16T05:28:28,42.805,6.029,CST-1368DR,4092,4258,11024,01.393,553
2024-04-16T05:31:29,42.805,6.029,CST-1368DR,4092,4258,11024,01.393,553
2024-04-16T05:34:31,42.805,6.029,CST-1368DR,4092,4256,11021,01.394,553
2024-04-16T05:37:32,42.805,6.029,CST-1368DR,4093,4257,11021,01.394,553
2024-04-16T05:40:34,42.805,6.029,CST-1368DR,4092,4253,11012,01.397,553
2024-04-16T05:43:36,42.805,6.029,CST-1368DR,4092,4259,11028,01.391,553
2024-04-16T05:46:37,42.805,6.029,CST-1368DR,4092,4257,11024,01.393,553
2024-04-16T05:49:39,42.805,6.029,CST-1368DR,4092,4257,11024,01.393,553
2024-04-16T05:52:40,42.805,6.029,CST-1368DR,4092,4258,11026,01.392,553
2024-04-16T05:55:42,42.805,6.029,CST-1368DR,4092,4256,11020,01.394,553
2024-04-16T05:58:44,42.805,6.029,CST-1368DR,4092,4257,11022,01.394,553
2024-04-16T06:01:45,42.805,6.029,CST-1368DR,4092,4257,11023,01.393,553
2024-04-16T06:04:47,42.805,6.029,CST-1368DR,4092,4258,11025,01.393,553
2024-04-16T06:07:48,42.805,6.029,CST-1368DR,4092,4256,11019,01.395,553
2024-04-16T06:10:50,42.805,6.029,CST-1368DR,4092,4256,11020,01.394,553
2024-04-16T06:13:51,42.805,6.029,CST-1368DR,4092,4256,11020,01.394,553
2024-04-16T06:16:53,42.805,6.029,CST-1368DR,4092,4256,11021,01.394,553
2024-04-16T06:19:55,42.805,6.029,CST-1368DR,4092,4256,11020,01.394,553
2024-04-16T06:22:56,42.805,6.029,CST-1368DR,4092,4256,11020,01.394,553
2024-04-16T06:25:58,42.805,6.029,CST-1368DR,4093,4257,11020,01.394,553
2024-04-16T06:28:59,42.805,6.029,CST-1368DR,4092,4255,11017,01.395,553
2024-04-16T06:32:01,42.805,6.029,CST-1368DR,4093,4256,11018,01.395,553
2024-04-16T06:35:03,42.805,6.029,CST-1368DR,4092,4257,11023,01.393,553
2024-04-16T06:38:04,42.805,6.029,CST-1368DR,4093,4257,11019,01.395,553
2024-04-16T06:41:06,42.805,6.029,CST-1368DR,4093,4257,11020,01.394,553
2024-04-16T06:44:07,42.805,6.029,CST-1368DR,4092,4256,11020,01.394,553
2024-04-16T06:47:09,42.805,6.029,CST-1368DR,4092,4257,11022,01.394,553
2024-04-16T06:50:10,42.805,6.029,CST-1368DR,4092,4256,11019,01.395,553
2024-04-16T06:53:12,42.805,6.029,CST-1368DR,4092,4256,11020,01.394,553
2024-04-16T06:56:14,42.805,6.029,CST-1368DR,4092,4257,11024,01.393,553
2024-04-16T06:59:15,42.805,6.029,CST-1368DR,4092,4257,11022,01.394,553
2024-04-16T07:02:17,42.805,6.029,CST-1368DR,4092,4256,11021,01.394,553
2024-04-16T07:05:18,42.805,6.029,CST-1368DR,4092,4257,11022,01.394,553
2024-04-16T07:08:20,42.805,6.029,CST-1368DR,4092,4256,11019,01.395,553
2024-04-16T07:11:21,42.805,6.029,CST-1368DR,4093,4258,11022,01.394,553
2024-04-16T07:14:23,42.805,6.029,CST-1368DR,4092,4244,10989,01.406,553
2024-04-16T07:17:25,42.805,6.029,CST-1368DR,4092,4249,11003,01.401,553
2024-04-16T07:20:26,42.805,6.029,CST-1368DR,4092,4256,11020,01.394,553
2024-04-16T07:23:28,42.805,6.029,CST-1368DR,4093,4256,11018,01.395,553
2024-04-16T07:26:29,42.805,6.029,CST-1368DR,4092,4257,11023,01.393,553
2024-04-16T07:29:31,42.805,6.029,CST-1368DR,4092,4256,11020,01.394,553
2024-04-16T07:32:33,42.805,6.029,CST-1368DR,4092,4255,11018,01.395,553
2024-04-16T07:35:34,42.805,6.029,CST-1368DR,4092,4257,11023,01.393,553
2024-04-16T07:38:36,42.805,6.029,CST-1368DR,4092,4256,11020,01.394,553
2024-04-16T07:41:37,42.805,6.029,CST-1368DR,4092,4256,11020,01.394,553
2024-04-16T07:44:39,42.805,6.029,CST-1368DR,4092,4255,11018,01.395,553
2024-04-16T07:47:40,42.805,6.029,CST-1368DR,4092,4257,11022,01.394,553
2024-04-16T07:50:42,42.805,6.029,CST-1368DR,4092,4256,11020,01.394,553
2024-04-16T07:53:44,42.805,6.029,CST-1368DR,4092,4257,11023,01.393,553
2024-04-16T07:56:45,42.805,6.029,CST-1368DR,4092,4256,11021,01.394,553
2024-04-16T07:59:47,42.805,6.029,CST-1368DR,4092,4257,11024,01.393,553
2024-04-16T08:02:48,42.805,6.029,CST-1368DR,4092,4256,11019,01.395,553
2024-04-16T08:05:50,42.805,6.029,CST-1368DR,4093,4257,11020,01.394,553
2024-04-16T08:08:51,42.805,6.029,CST-1368DR,4092,4257,11022,01.394,553
2024-04-16T08:11:53,42.805,6.029,CST-1368DR,4092,4257,11023,01.393,553
2024-04-16T08:14:55,42.805,6.029,CST-1368DR,4092,4255,11018,01.395,553
2024-04-16T08:17:56,42.805,6.029,CST-1368DR,4092,4258,11024,01.393,553
2024-04-16T08:20:58,42.805,6.029,CST-1368DR,4092,4256,11021,01.394,553
2024-04-16T08:23:59,42.805,6.029,CST-1368DR,4092,4256,11020,01.394,553
2024-04-16T08:27:01,42.805,6.029,CST-1368DR,4092,4257,11022,01.394,553
2024-04-16T08:30:03,42.805,6.029,CST-1368DR,4092,4257,11022,01.394,553
2024-04-16T08:33:04,42.805,6.029,CST-1368DR,4092,4258,11026,01.392,553
2024-04-16T08:36:06,42.805,6.029,CST-1368DR,4092,4257,11022,01.394,553
2024-04-16T08:39:07,42.805,6.029,CST-1368DR,4092,4258,11025,01.393,553
2024-04-16T08:42:09,42.805,6.029,CST-1368DR,4092,4258,11024,01.393,553
2024-04-16T08:45:10,42.805,6.029,CST-1368DR,4092,4256,11020,01.394,553
2024-04-16T08:48:12,42.805,6.029,CST-1368DR,4092,4259,11029,01.391,553
2024-04-16T08:51:14,42.805,6.029,CST-1368DR,4092,4258,11024,01.393,553
2024-04-16T08:54:15,42.805,6.029,CST-1368DR,4092,4258,11026,01.392,553
2024-04-16T08:57:17,42.805,6.029,CST-1368DR,4092,4258,11024,01.393,553
2024-04-16T09:00:18,42.805,6.029,CST-1368DR,4092,4258,11026,01.392,553
2024-04-16T09:03:20,42.805,6.029,CST-1368DR,4092,4257,11023,01.393,553
2024-04-16T09:06:21,42.805,6.029,CST-1368DR,4092,4260,11030,01.391,553
2024-04-16T09:09:23,42.805,6.029,CST-1368DR,4092,4257,11022,01.394,553
2024-04-16T09:12:25,42.805,6.029,CST-1368DR,4092,4257,11024,01.393,553
2024-04-16T09:15:26,42.805,6.029,CST-1368DR,4092,4257,11022,01.394,553
2024-04-16T09:18:28,42.805,6.029,CST-1368DR,4092,4256,11020,01.394,553
2024-04-16T09:21:29,42.805,6.029,CST-1368DR,4092,4256,11020,01.394,553
2024-04-16T09:24:31,42.805,6.029,CST-1368DR,4092,4257,11024,01.393,553
2024-04-16T09:27:33,42.805,6.029,CST-1368DR,4092,4255,11016,01.396,553
2024-04-16T09:30:34,42.805,6.029,CST-1368DR,4092,4257,11024,01.393,553
2024-04-16T09:33:36,42.805,6.029,CST-1368DR,4092,4255,11017,01.395,553
2024-04-16T09:36:37,42.805,6.029,CST-1368DR,4092,4252,11011,01.398,553
2024-04-16T09:39:39,42.805,6.029,CST-1368DR,4092,4258,11026,01.392,553
2024-04-16T09:42:40,42.805,6.029,CST-1368DR,4092,4256,11020,01.394,553
2024-04-16T09:45:42,42.805,6.029,CST-1368DR,4092,4255,11017,01.395,553
2024-04-16T09:48:44,42.805,6.029,CST-1368DR,4092,4256,11019,01.395,553
2024-04-16T09:51:45,42.805,6.029,CST-1368DR,4092,4258,11026,01.392,553
2024-04-16T09:54:47,42.805,6.029,CST-1368DR,4092,4256,11019,01.395,553
2024-04-16T09:57:48,42.805,6.029,CST-1368DR,4092,4257,11022,01.394,553
2024-04-16T10:00:50,42.805,6.029,CST-1368DR,4092,4257,11022,01.394,553
2024-04-16T10:03:51,42.805,6.029,CST-1368DR,4092,4256,11020,01.394,553
2024-04-16T10:06:53,42.805,6.029,CST-1368DR,4092,4264,11042,01.386,553
2024-04-16T10:09:55,42.805,6.029,CST-1368DR,4092,4256,11021,01.394,553
2024-04-16T10:12:56,42.805,6.029,CST-1368DR,4092,4257,11024,01.393,553
2024-04-16T10:15:58,42.805,6.029,CST-1368DR,4092,4257,11022,01.394,553
2024-04-16T10:18:59,42.805,6.029,CST-1368DR,4092,4257,11022,01.394,553
2024-04-16T10:22:01,42.805,6.029,CST-1368DR,4092,4258,11026,01.392,553
2024-04-16T10:25:02,42.805,6.029,CST-1368DR,4092,4258,11024,01.393,553
2024-04-16T10:28:04,42.805,6.029,CST-1368DR,4092,4258,11025,01.393,553
2024-04-16T10:31:06,42.805,6.029,CST-1368DR,4092,4258,11024,01.393,553
2024-04-16T10:34:07,42.805,6.029,CST-1368DR,4092,4255,11018,01.395,553
2024-04-16T10:37:09,42.805,6.029,CST-1368DR,4092,4256,11019,01.395,553
2024-04-16T10:40:10,42.805,6.029,CST-1368DR,4092,4256,11020,01.394,553
2024-04-16T10:43:12,42.805,6.029,CST-1368DR,4092,4257,11023,01.393,553
2024-04-16T10:46:14,42.805,6.029,CST-1368DR,4092,4259,11027,01.392,553
2024-04-16T10:49:15,42.805,6.029,CST-1368DR,4092,4257,11022,01.394,553
2024-04-16T10:52:17,42.805,6.029,CST-1368DR,4092,4257,11023,01.393,553
2024-04-16T10:55:18,42.805,6.029,CST-1368DR,4092,4258,11024,01.393,553
2024-04-16T10:58:20,42.805,6.029,CST-1368DR,4092,4258,11026,01.392,553
2024-04-16T11:01:21,42.805,6.029,CST-1368DR,4092,4255,11017,01.395,553
2024-04-16T11:04:23,42.805,6.029,CST-1368DR,4092,4257,11023,01.393,553
2024-04-16T11:07:25,42.805,6.029,CST-1368DR,4092,4279,11081,01.372,553
2024-04-16T11:10:26,42.805,6.029,CST-1368DR,4092,4279,11080,01.373,553
2024-04-16T11:13:28,42.805,6.029,CST-1368DR,4092,4279,11079,01.373,553
2024-04-16T11:16:29,42.805,6.029,CST-1368DR,4092,4279,11081,01.372,553
2024-04-16T11:19:31,42.805,6.029,CST-1368DR,4092,4280,11083,01.372,553
2024-04-16T11:22:33,42.805,6.029,CST-1368DR,4092,4277,11075,01.374,553
2024-04-16T11:25:34,42.805,6.029,CST-1368DR,4092,4280,11081,01.372,553
2024-04-16T11:28:36,42.805,6.029,CST-1368DR,4092,4280,11083,01.372,553
2024-04-16T11:31:37,42.805,6.029,CST-1368DR,4092,4279,11081,01.372,553
2024-04-16T11:34:39,42.805,6.029,CST-1368DR,4092,4280,11081,01.372,553
2024-04-16T11:37:40,42.805,6.029,CST-1368DR,4092,4280,11082,01.372,553
2024-04-16T11:40:42,42.805,6.029,CST-1368DR,4092,4280,11082,01.372,553
2024-04-16T11:43:44,42.805,6.029,CST-1368DR,4092,4279,11080,01.373,553
2024-04-16T11:46:45,42.805,6.029,CST-1368DR,4092,4280,11083,01.372,553
2024-04-16T11:49:47,42.805,6.029,CST-1368DR,4092,4279,11081,01.372,553
2024-04-16T11:52:48,42.805,6.029,CST-1368DR,4092,4280,11081,01.372,553
2024-04-16T11:55:50,42.805,6.029,CST-1368DR,4092,4277,11075,01.374,553
2024-04-16T11:58:51,42.805,6.029,CST-1368DR,4092,4275,11069,01.377,553
2024-04-16T12:01:53,42.805,6.029,CST-1368DR,4092,4273,11064,01.378,553
2024-04-16T12:04:55,42.805,6.029,CST-1368DR,4092,4270,11057,01.381,553
2024-04-16T12:07:56,42.805,6.029,CST-1368DR,4092,4273,11064,01.378,553
2024-04-16T12:10:58,42.805,6.029,CST-1368DR,4092,4271,11058,01.381,553
2024-04-16T12:13:59,42.805,6.029,CST-1368DR,4092,4269,11054,01.382,553
2024-04-16T12:17:01,42.805,6.029,CST-1368DR,4092,4267,11048,01.384,553
2024-04-16T12:20:03,42.805,6.029,CST-1368DR,4092,4266,11047,01.385,553
2024-04-16T12:23:04,42.805,6.029,CST-1368DR,4092,4264,11042,01.386,553
2024-04-16T12:26:06,42.805,6.029,CST-1368DR,4092,4263,11039,01.387,553
2024-04-16T12:29:07,42.805,6.029,CST-1368DR,4092,4263,11038,01.388,553
2024-04-16T12:32:09,42.805,6.029,CST-1368DR,4092,4263,11037,01.388,553
2024-04-16T12:35:10,42.805,6.029,CST-1368DR,4092,4262,11035,01.389,553
2024-04-16T12:38:12,42.805,6.029,CST-1368DR,4092,4262,11037,01.388,553
2024-04-16T12:41:14,42.805,6.029,CST-1368DR,4092,4261,11034,01.389,553
2024-04-16T12:44:15,42.805,6.029,CST-1368DR,4092,4261,11032,01.390,553
2024-04-16T12:47:17,42.805,6.029,CST-1368DR,4092,4262,11035,01.389,553
2024-04-16T12:50:18,42.805,6.029,CST-1368DR,4092,4261,11033,01.390,553
2024-04-16T12:53:20,42.805,6.029,CST-1368DR,4092,4261,11032,01.390,553
2024-04-16T12:56:21,42.805,6.029,CST-1368DR,4092,4260,11029,01.391,553
2024-04-16T12:59:23,42.805,6.029,CST-1368DR,4092,4260,11031,01.390,553
2024-04-16T13:02:25,42.805,6.029,CST-1368DR,4092,4260,11029,01.391,553
2024-04-16T13:05:26,42.805,6.029,CST-1368DR,4092,4260,11031,01.390,553
2024-04-16T13:08:28,42.805,6.029,CST-1368DR,4092,4261,11033,01.390,553
2024-04-16T13:11:29,42.805,6.029,CST-1368DR,4092,4260,11031,01.390,553
2024-04-16T13:14:31,42.805,6.029,CST-1368DR,4092,4261,11032,01.390,553
2024-04-16T13:17:33,42.805,6.029,CST-1368DR,4092,4259,11027,01.392,553
2024-04-16T13:20:34,42.805,6.029,CST-1368DR,4092,4257,11022,01.394,553
2024-04-16T13:23:36,42.805,6.029,CST-1368DR,4092,4260,11029,01.391,553
2024-04-16T13:26:37,42.805,6.029,CST-1368DR,4092,4267,11049,01.384,553
2024-04-16T13:29:39,42.805,6.029,CST-1368DR,4092,4260,11029,01.391,553
2024-04-16T13:32:40,42.805,6.029,CST-1368DR,4092,4259,11028,01.391,553
2024-04-16T13:35:42,42.805,6.029,CST-1368DR,4092,4259,11027,01.392,553
2024-04-16T13:38:44,42.805,6.029,CST-1368DR,4092,4257,11023,01.393,553
2024-04-16T13:41:45,42.805,6.029,CST-1368DR,4092,4259,11027,01.392,553
2024-04-16T13:44:47,42.805,6.029,CST-1368DR,4092,4258,11025,01.393,553
2024-04-16T13:47:48,42.805,6.029,CST-1368DR,4092,4256,11020,01.394,553
2024-04-16T13:50:50,42.805,6.029,CST-1368DR,4092,4262,11037,01.388,553
2024-04-16T13:53:51,42.805,6.029,CST-1368DR,4092,4258,11025,01.393,553
2024-04-16T13:56:53,42.805,6.029,CST-1368DR,4092,4259,11028,01.391,553
2024-04-16T13:59:55,42.805,6.029,CST-1368DR,4092,4259,11028,01.391,553
2024-04-16T14:02:56,42.805,6.029,CST-1368DR,4092,4258,11025,01.393,553
2024-04-16T14:05:58,42.805,6.029,CST-1368DR,4092,4258,11026,01.392,553
2024-04-16T14:08:59,42.805,6.029,CST-1368DR,4092,4258,11026,01.392,553
2024-04-16T14:12:01,42.805,6.029,CST-1368DR,4092,4258,11026,01.392,553
2024-04-16T14:15:03,42.805,6.029,CST-1368DR,4092,4263,11039,01.387,553
2024-04-16T14:18:04,42.805,6.029,CST-1368DR,4092,4261,11033,01.390,553
2024-04-16T14:21:06,42.805,6.029,CST-1368DR,4092,4259,11028,01.391,553
2024-04-16T14:24:07,42.805,6.029,CST-1368DR,4092,4258,11026,01.392,553
2024-04-16T14:27:09,42.805,6.029,CST-1368DR,4092,4260,11031,01.390,553
2024-04-16T14:30:10,42.805,6.029,CST-1368DR,4092,4268,11051,01.383,553
2024-04-16T14:33:12,42.805,6.029,CST-1368DR,4092,4259,11029,01.391,553
2024-04-16T14:36:14,42.805,6.029,CST-1368DR,4092,4257,11022,01.394,553
2024-04-16T14:39:15,42.805,6.029,CST-1368DR,4092,4259,11029,01.391,553
2024-04-16T14:42:17,42.805,6.029,CST-1368DR,4092,4258,11025,01.393,553
2024-04-16T14:45:18,42.805,6.029,CST-1368DR,4092,4258,11026,01.392,553
2024-04-16T14:48:20,42.805,6.029,CST-1368DR,4092,4258,11026,01.392,553
2024-04-16T14:51:21,42.805,6.029,CST-1368DR,4092,4260,11029,01.391,553
2024-04-16T14:54:23,42.805,6.029,CST-1368DR,4092,4259,11027,01.392,553
2024-04-16T14:57:25,42.805,6.029,CST-1368DR,4092,4257,11022,01.394,553
2024-04-16T15:00:26,42.805,6.029,CST-1368DR,4092,4258,11024,01.393,553
2024-04-16T15:03:28,42.805,6.029,CST-1368DR,4092,4259,11029,01.391,553
2024-04-16T15:06:29,42.805,6.029,CST-1368DR,4092,4259,11027,01.392,553
2024-04-16T15:09:31,42.805,6.029,CST-1368DR,4092,4258,11026,01.392,553
2024-04-16T15:12:33,42.805,6.029,CST-1368DR,4092,4258,11025,01.393,553
2024-04-16T15:15:34,42.805,6.029,CST-1368DR,4092,4257,11024,01.393,553
2024-04-16T15:18:36,42.805,6.029,CST-1368DR,4092,4259,11029,01.391,553
2024-04-16T15:21:37,42.805,6.029,CST-1368DR,4092,4259,11027,01.392,553
2024-04-16T15:24:39,42.805,6.029,CST-1368DR,4092,4259,11028,01.391,553
2024-04-16T15:27:40,42.805,6.029,CST-1368DR,4092,4260,11029,01.391,553
2024-04-16T15:30:42,42.805,6.029,CST-1368DR,4092,4253,11011,01.398,553
2024-04-16T15:33:44,42.805,6.029,CST-1368DR,4092,4261,11032,01.390,553
2024-04-16T15:36:45,42.805,6.029,CST-1368DR,4092,4262,11037,01.388,553
2024-04-16T15:39:47,42.805,6.029,CST-1368DR,4092,4259,11029,01.391,553
2024-04-16T15:42:48,42.805,6.029,CST-1368DR,4092,4260,11030,01.391,553
2024-04-16T15:45:50,42.805,6.029,CST-1368DR,4092,4258,11026,01.392,553
2024-04-16T15:48:51,42.805,6.029,CST-1368DR,4092,4260,11029,01.391,553
2024-04-16T15:51:53,42.805,6.029,CST-1368DR,4092,4260,11029,01.391,553
2024-04-16T15:54:55,42.805,6.029,CST-1368DR,4092,4258,11025,01.393,553
2024-04-16T15:57:56,42.805,6.029,CST-1368DR,4092,4257,11022,01.394,553
2024-04-16T16:00:58,42.805,6.029,CST-1368DR,4092,4258,11024,01.393,553
2024-04-16T16:03:59,42.805,6.029,CST-1368DR,4092,4259,11029,01.391,553
2024-04-16T16:07:01,42.805,6.029,CST-1368DR,4092,4257,11023,01.393,553
2024-04-16T16:10:03,42.805,6.029,CST-1368DR,4092,4258,11025,01.393,553
2024-04-16T16:13:04,42.805,6.029,CST-1368DR,4092,4258,11026,01.392,553
2024-04-16T16:16:06,42.805,6.029,CST-1368DR,4092,4260,11029,01.391,553
2024-04-16T16:19:07,42.805,6.029,CST-1368DR,4092,4259,11028,01.391,553
2024-04-16T16:22:09,42.805,6.029,CST-1368DR,4092,4258,11026,01.392,553
2024-04-16T16:25:10,42.805,6.029,CST-1368DR,4092,4260,11031,01.390,553
2024-04-16T16:28:12,42.805,6.029,CST-1368DR,4092,4259,11029,01.391,553
2024-04-16T16:31:14,42.805,6.029,CST-1368DR,4092,4258,11026,01.392,553
2024-04-16T16:34:15,42.805,6.029,CST-1368DR,4092,4258,11026,01.392,553
2024-04-16T16:37:17,42.805,6.029,CST-1368DR,4092,4260,11031,01.390,553